Regional Weather Roundup
Issued by NWS State College, PA

Home | Current Version | Previous Version | Graphics & Text | Print | Product List | Glossary On
Versions: 1 2 3 4 5 6 7 8 9 10 11 12 13 14 15 16 17 18 19 20 21 22 23 24 25 26 27 28 29 30 31 32 33 34 35 36 37 38 39 40 41 42 43 44 45 46 47 48 49 50
000
ASUS41 KCTP 311310
RWRCTP

REGIONAL WEATHER ROUNDUP
NATIONAL WEATHER SERVICE STATE COLLEGE PA
900 AM EDT THU JUL 31 2014

Note: "fair" indicates few or no clouds below 12,000 feet with no
significant weather and/or obstructions to visibility.

* = STATION THAT DOES NOT REPORT PRECIPITATION /E.G. RAIN...SNOW...ETC/
    THUNDER OR FOG.

PAZ002>004-007>009-013>016-020>023-029>032-311400-
WESTERN PENNSYLVANIA

CITY           SKY/WX    TMP DP  RH WIND       PRES   REMARKS
ERIE           PTSUNNY   65  57  75 S10       30.03R
MEADVILLE      CLOUDY    61  58  90 SW6       30.07R
FRANKLIN*      CLOUDY    61  55  82 SW7       30.09R
NEW CASTLE     CLOUDY    64  61  90 CALM      30.09R
BEAVER COUNTY  CLOUDY    61  59  94 W5        30.10R
BUTLER*        CLOUDY    61  55  82 SW7       30.11S
PITTSBURGH INT MOSUNNY   63  59  87 SW7       30.09R
PITTSBURGH     PTSUNNY   61  57  87 S7        30.09S FOG
INDIANA*       CLOUDY    61  59  94 SW7G14    30.15R FOG
LATROBE        PTSUNNY   63  61  94 W14       30.12R
WASHINGTON CO* SUNNY     63  59  88 SW5       30.11S
$$

PAZ004>006-010>012-017>019-024>028-033>037-041-042-045-046-049>053-311400-
CENTRAL PENNSYLVANIA

CITY           SKY/WX    TMP DP  RH WIND       PRES   REMARKS
BRADFORD       CLOUDY    58  55  90 VRB3      30.08S
DUBOIS         CLOUDY    60  58  92 SW9       30.09R FOG
CLEARFIELD     CLOUDY    57  57 100 S3        30.10S FOG
JOHNSTOWN      CLOUDY    59  55  87 SW5       30.13R
ALTOONA        SUNNY     64  59  83 SW9       30.12S
STATE COLLEGE  PTSUNNY   59  57  94 SW3       30.10S FOG
WILLIAMSPORT   CLOUDY    62  57  83 CALM      30.08R HAZE
SELINSGROVE    CLOUDY    61  59  93 VRB3      30.11S FOG
FT INDIANTOWN  PTSUNNY   65  65 100 SW5       30.12R
CAPITAL CITY   MOSUNNY   65  62  90 W3        30.11R
HARRISBURG     MOSUNNY   69  60  73 CALM      30.10R
YORK           SUNNY     69  61  75 N3        30.10F
$$

PAZ038>040-043-044-047-048-054-055-060>062-067>071-311400-
EASTERN PENNSYLVANIA

CITY           SKY/WX    TMP DP  RH WIND       PRES   REMARKS
SCRANTON       PTSUNNY   65  58  78 CALM      30.09S
MOUNT POCONO   MOSUNNY   65  55  70 SW10      30.12S
ALLENTOWN      MOSUNNY   69  57  65 CALM      30.10S
QUAKERTOWN*    SUNNY     68  59  73 W3        30.12S
READING        SUNNY     70  59  68 CALM      30.09F
LANCASTER      SUNNY     68  59  73 W3        30.10F
COATESVILLE    SUNNY     68  63  83 SW5       30.12S
POTTSTOWN      SUNNY     68  58  70 CALM      30.12S
BLUE BELL      MOSUNNY   72  61  68 SW5       30.10F
DOYLESTOWN     MOSUNNY   67  60  78 S5        30.11S
WILLOW GROVE   NOT AVBL
NORTH PHILA    PTSUNNY   73  58  59 VRB5      30.12S
PHILADELPHIA   MOSUNNY   72  60  66 S9        30.11S
$$


USA.gov is the U.S. government's official web portal to all federal, state and local government web resources and services.